map of BJL home
Great Circle Mapper logo
BJL - Airport
Location
City:  Banjul, Gambia
Name:Banjul International Airport
Old (Alt.):Yundum International Airport
ICAO / IATA:GBYD / BJL

Details
Type:Airport (Aerodrome, Airfield)
Use:Public/Civil, International (customs port of entry)
Latitude:1320'17"N (13.337961)
Longitude:1639'08"W (-16.652205)
Datum:WGS 1984
Elevation:95 ft (29 m)
Variation:7.57W (WMM2015 magnetic declination)
0.11 annual change
Runways:1
Longest:11811 × 148 ft (3600 × 45 m), paved

Time
Time Zone:UTC+0
Local Time:

Weather
METAR:GBYD 032300Z 06012KT 9000 -TSRA BKN011 FEW020CB BKN110 24/23 Q1013 CB(NE-SW)
TAF:GBYD 031730Z 0318/0424 24008KT 8000 TS SCT010 FEW020CB
TEMPO 0319/0401 4000 TSRA
BECMG 0404/0406 NSW SCT012
TEMPO 0416/0422 4000 TSRA BKN010 FEW020CB

Related Locations
Nearby:
Farthest:TOH: 12228 mi / 19679 km
Loh/Linua [Torres Airstrip], Linua Island, TOB, VU

Find:

   beyond  
but within

Other Information
Maps:
NOTAMs:
Links:
Sources:

  
flag of Gambia   

Sectional Chart

Flight Planning
at skyvector.com

Satellite Image

Google Maps Satellite view

 

Copyright © 2004-2015 Karl L. Swartz. All rights reserved.
The Great Circle Mapper name and logo are trademarks of the Great Circle Mapper.
All other trademarks mentioned herein belong to their respective owners.
Please see credits for attibutions and further copyright information.

  Follow gcmap on Facebook Follow gcmap on Twitter Follow gcmap on Google+

hCard Microformat

Geo Microformat